OBJECT BQ, 60530

Orbit data source: Space-Track

You're viewing an Uncataloged Satellite

Recently launched and/or uncataloged satellites may have evolving metadata. Metadata may include but not limited to: Owner, Maufacturer, Bus, Motor, and Mission.

OBJECT BQ, 60530 is a satellite in SSO that was launched on Fri, 16 Aug 2024 UTC via an FALCON 9 launch vehicle from the Air Force Western Test Range (AFWTR). Unknown objects in Earth's orbit typically refer to objects detected orbiting the Earth but have not yet been identified or cataloged. These objects could be anything from previously untracked satellites, spent rocket stages, debris from satellite collisions, or even natural meteoroids temporarily captured by Earth's gravity.

Loading next visibility...
Identifier
60530, 2024-149BQ
Orbit
SSO
Country
Flag of TBDTBD
Related business
Manufacturer
NANAV/PYRAS
Mission
Operational Civil Imaging
Bus & Motor
CUBESAT 3U, Unknown motor
Mass
5 kg wet, 5 kg dry
Launch date (UTC)
2024-08-16 (1 year ago)
Launch vehicle
FALCON 9
Launch site
Air Force Western Test Range (AFWTR)
Object type
Unknown
Shape & HBR
Box, 0.1 m
Radar Cross Section
0.080 m², Small (<0.1 m²)

Expand to show TLE details & history
Last TLE update: 5 hours ago

TLE from 5 hours ago
0 OBJECT BQ
1 60530U 24149BQ  26035.14938330  .00003141  00000-0  28637-3 0  9999
2 60530  97.6911 112.2864 0001661  93.6164 266.5247 14.95827811 80068
Epoch: 2026-02-04T03:35Z
TLE epoch observation values (Epoch: 2026-02-04T03:35:06.717Z)
Latitude
-0.00002°
Longitude
-75.81169°
Altitude
582.924 km
Speed
7.569 km/s
True Right ascension
07h 29m 08s
True Declination
0° 00' 00"
Sunlit
Object was in full shadow at epoch
Visualization orbit readout
Latitude
Unknown
Longitude
Unknown
Altitude
Unknown
Speed
Unknown
Apparent Right ascension
Unknown
Apparent Declination
Unknown
Sunlit
N/A
Visualization observer readout
Local Sidereal Time
10:42:47
Azimuth
Unknown
Elevation
Unknown
Doppler factor
Unknown
Orbital elements
Apogee altitude
577.97 km
Perigee altitude
575.66 km
Semi-major axis
6,954.952 km
Eccentricity
0.00017
Inclination
97.6911°
RAAN
112.2864°
Arg. of periapsis
93.6164°
True anomaly
266.5057°
Mean anomaly
266.5247°
Eccentric anomaly
266.5152°
Mean motion
3.74198 °/min
Orbital period
96.21 mins
BSTAR
0.00028637
Loading maneuver chart data...
Computing Atmospheric mass density...
Loading historical data...
Loading historical data...
Loading historical data...
Loading historical data...
Loading historical data...
Loading historical data...
Loading historical data...

Documentation

Showing up to 5 results
|